AirNav   ProFlight Series 2 Aviation Headset
 
 1455 users online  

DC03 US Park Police Eagle's Nest Heliport
Washington, District of Columbia, USA

GOING TO WASHINGTON?


FAA INFORMATION EFFECTIVE 16 JULY 2020

Location

FAA Identifier: DC03
Lat/Long: 38-51-59.4040N 076-59-33.9120W
38-51.990067N 076-59.565200W
38.8665011,-76.9927533
(estimated)
Elevation: 14 ft. / 4 m (estimated)
Variation: 09W (1985)
Time zone: UTC -4 (UTC -5 during Standard Time)
Zip code: 20020

Heliport Operations

Heliport use: Private use. Permission required prior to landing
Activation date: 03/1973
Control tower: no
ARTCC: WASHINGTON CENTER
FSS: LEESBURG FLIGHT SERVICE STATION
Attendance: 0600-0200
Wind indicator: yes
Segmented circle: no
Lights: SS-SR

Heliport Communications

WX ASOS at DCA (2.3 nm SW): 132.65 (703-412-8140)
WX AWOS-3 at CGS (8 nm NE): 121.225 (301-864-5497)
WX AWOS-3 at FME (17 nm NE): 123.925
WX AWOS-3PT at GAI (20 nm NW): 128.275 (301-977-2971)

Nearby radio navigation aids

VOR radial/distance  VOR name  Freq  Var
DCAr087/2.1WASHINGTON VOR/DME111.0009W
ADWr311/6.9ANDREWS VORTAC113.1010W
OTTr320/15.1NOTTINGHAM VORTAC113.7010W
AMLr108/22.5ARMEL VOR/DME113.5008W
BALr231/23.9BALTIMORE VORTAC115.1011W
BRVr037/36.0BROOKE VORTAC114.5009W
FDKr159/(37.3)FREDERICK VOR109.0008W
EMIr189/37.7WESTMINSTER VORTAC117.9008W

 
NDB name  Hdg/Dist  Freq  Var  ID
OXONN026/6.233211WDCA -.. -.-. .-
GEORGETOWN131/7.232309WGTN --. - -.
DAVEE033/13.522309WDAA -.. .- .-
ELLICOTT213/27.237111WFND ..-. -. -..

Heliport Services

Runway Information

Helipad H2

Dimensions: 70 x 70 ft. / 21 x 21 m
Surface: asphalt/concrete
Runway edge lights: PERI
Traffic pattern: leftleft

Helipad H1

Dimensions: 40 x 40 ft. / 12 x 12 m
Surface: asphalt/concrete
Runway edge lights: PERI
Latitude: 38-51.990067N
Longitude: 076-59.565200W
Elevation: 14.0 ft.
Traffic pattern: leftleft

Heliport Ownership and Management from official FAA records

Ownership: Publicly-owned
Owner: DEPT.INTERIOR NPS NCR USPP
1100 OHIO DR, SW
WASHINGTON, DC 20242
Phone 202-619-7105
Manager: LT. JOHN DILLON
1100 OHIO DR, SW
WASHINGTON, DC 20242
Phone 202-690-0738

Heliport Operational Statistics

Aircraft based on the field: 3
Helicopters: 3
    

Additional Remarks

BLUE TAXI LGTS BTWN HELIPADS
FOR CD CTC POTOMAC APCH AT 866-599-3874.

Instrument Procedures

There are no published instrument procedures at DC03.

Some nearby airports with instrument procedures:

KDCA - Ronald Reagan Washington National Airport (2 nm SW)
KADW - Joint Base Andrews (7 nm SE)
KVKX - Potomac Airfield (7 nm S)
KCGS - College Park Airport (8 nm NE)
W32 - Washington Executive Airport/Hyde Field (8 nm S)
W00 - Freeway Airport (11 nm NE)
KDAA - Davison Army Airfield (13 nm SW)
2W5 - Maryland Airport (17 nm S)
KFME - Tipton Airport (17 nm NE)
KGAI - Montgomery County Airpark (20 nm NW)
 
Loc | Ops | Rwys | IFR | FBO | Links
Com | Nav | Svcs | Stats | Notes
Area around DC03 (US Park Police Eagle's Nest Heliport)
 
Road maps at: MapQuest Bing Google
 
Aerial photo
No photo
 
Sectional chart

 
Airport distance calculator
Flying to US Park Police Eagle's Nest Heliport? Find the distance to fly.

From to DC03

Sunrise and sunset
Times for 07-Aug-2020
 Local
(UTC-4)
 Zulu
(UTC)
Morning civil twilight05:4709:47
Sunrise06:1610:16
Sunset20:1100:11
Evening civil twilight20:4000:40

Current date and time
Zulu (UTC)  07-Aug-2020 16:48:29
Local (UTC-4)  07-Aug-2020 12:48:29
 
METAR
KDCA 
2nm SW 
071552Z 17006KT 10SM SCT035 BKN065 BKN160 28/22 A3010 RMK AO2 SLP193 T02780217
KADW 
7nm SE 
071556Z AUTO 17007KT 10SM FEW026 28/20 A3010 RMK AO2 SLP197 T02780203 $
KCGS 
8nm NE 
071635Z AUTO 16004KT 10SM SCT031 SCT039 28/19 A3008 RMK AO1 T02790189
KDAA 
12nm SW 
071556Z AUTO 16006KT 10SM FEW026 28/22 A3010 RMK AO2 SLP195 T02790219 $
KFME 
17nm NE 
071635Z AUTO 25005KT 10SM SCT030 28/21 A3011 RMK AO1
KGAI 
20nm NW 
071556Z AUTO VRB05KT 10SM FEW027 BKN075 28/21 A3011 RMK AO2 SLP206 T02780211
TAF
KDCA 
2nm SW 
071458Z 0715/0818 VRB03KT P6SM VCSH SCT050 BKN110 FM071900 14004KT P6SM VCTS SCT025CB BKN035 FM072300 10004KT P6SM -SHRA VCTS SCT025CB OVC060 FM080300 11004KT P6SM SCT025 OVC070 FM081100 01004KT P6SM SCT015 BKN200
KADW 
7nm SE 
070900Z 0709/0815 08005KT 9999 SCT015 BKN040 QNH2999INS BECMG 0719/0720 27006KT 9999 -SHRA VCTS SCT015CB BKN020 QNH3000INS TEMPO 0720/0724 6000 -TSRA BECMG 0803/0804 11006KT 9999 VCSH BKN020 BKN030 QNH3000INS TEMPO 0808/0812 BKN007 OVC010 TX30/0721Z TN21/0711Z
KDAA 
12nm SW 
070900Z 0709/0815 VRB06KT 4800 -SHRA BKN020 QNH3002INS BECMG 0709/0710 VRB06KT 8000 BR SCT020 QNH3001INS TEMPO 0717/0803 VRB20G25KT -TSRA BKN025CB BECMG 0803/0804 VRB06KT 8000 -SHRA BKN020 QNH3005INS BECMG 0806/0807 VRB06KT 4800 BR BKN004 QNH3006INS TX30/0720Z TN22/0808Z
NOTAMs
Click for the latest NOTAMs
NOTAMs are issued by the DoD/FAA and will open in a separate window not controlled by AirNav.

 

 
 

Would you like to see your business listed on this page?

 If your business provides an interesting product or service to pilots, flight crews, aircraft, or users of the US Park Police Eagle's Nest Heliport, you should consider listing it here.  To start the listing process, click on the button below
 
Add a business
 

Other Pages about US Park Police Eagle's Nest Heliport

Update a link
 
Copyright © AirNav, LLC. All rights reserved. Privacy Policy  Contact